Temperature
15 16 17 17 17 18 19 21 23 24 25 25 24 24 23 22 22 20 20 19 20 21 19 18 17 17 16 16 16 16 16 16 16 16 15 15 16 16 16 16 16 16 16 16 16 16 16 16 16
15 15 16 17 17 17 19 22 23 24 24 24 24 23 24 22 20 20 20 19 20 20 19 18 17 16 16 16 16 16 16 16 16 16 16 16 16 16 16 16 16 16 16 16 16 16 16 16 16
15 15 17 17 17 18 20 22 23 24 23 23 23 23 22 21 20 20 19 18 19 19 19 18 17 16 16 16 16 16 16 16 16 16 16 16 16 16 16 16 16 16 16 16 16 17 17 17 17
14 15 17 17 18 19 21 23 23 23 23 23 23 22 19 18 19 19 19 18 18 18 18 17 16 16 16 16 16 16 16 16 16 16 16 16 16 16 17 17 17 17 17 17 17 17 17 17 17
14 16 16 16 18 20 22 23 23 23 23 23 23 21 17 18 18 19 18 18 17 17 17 17 16 16 16 16 16 16 16 16 16 16 16 16 16 17 17 17 17 17 17 17 17 17 17 17 17
14 15 15 16 18 20 22 22 22 22 23 23 23 21 16 17 18 18 18 18 17 16 17 17 16 16 16 16 16 16 16 16 16 16 16 16 17 17 17 17 17 17 17 17 17 17 17 17 17
14 14 15 16 18 20 21 21 21 21 22 22 22 19 16 17 17 18 18 18 17 16 16 16 16 15 15 15 15 16 16 16 16 16 16 17 17 17 17 17 17 18 18 17 17 17 17 17 17
14 14 15 17 18 20 21 21 21 21 21 20 20 18 16 16 17 17 17 17 16 16 16 16 16 15 15 15 15 16 16 16 16 16 16 17 17 17 17 18 18 18 18 18 17 17 17 17 17
13 13 14 16 18 19 20 20 20 20 19 19 18 17 16 16 16 17 17 16 16 16 16 16 16 15 15 15 15 15 16 16 16 16 16 16 17 17 17 18 18 18 18 18 17 17 17 17 17
13 12 14 17 18 19 19 20 19 19 19 18 17 16 16 16 16 16 16 16 16 16 16 16 16 16 15 15 15 15 15 15 16 16 16 16 15 15 17 17 17 17 17 17 17 17 17 17 17
13 13 16 18 18 18 18 19 19 19 18 18 17 16 15 16 16 16 16 16 16 16 16 16 16 16 15 15 15 15 15 15 15 15 15 14 14 15 16 16 17 17 17 17 17 16 16 16 16
13 15 16 17 17 17 17 17 18 19 18 18 17 16 16 16 16 16 16 16 16 16 16 16 16 16 15 15 15 15 15 15 14 14 14 14 15 15 15 16 16 16 16 16 16 16 16 15 15
13 15 16 16 16 16 16 16 16 17 17 17 16 16 16 16 16 16 16 16 16 16 16 16 16 16 15 15 15 15 15 15 14 14 14 14 14 15 15 15 15 15 15 15 15 15 15 14 14
14 15 15 15 15 15 15 15 15 16 17 17 16 16 16 16 16 16 16 16 16 16 15 15 15 15 15 15 15 15 15 14 14 14 14 14 14 14 14 14 14 14 14 14 14 15 14 14 14
13 14 14 14 15 14 14 14 15 15 16 16 16 16 16 16 16 16 16 16 16 15 15 15 15 15 15 15 15 15 14 14 14 14 14 14 14 14 14 14 14 14 14 14 14 14 14 14 14
12 12 12 13 14 14 14 13 15 16 16 16 17 16 17 17 16 16 16 16 16 15 15 15 15 15 15 15 15 15 14 14 14 14 14 14 14 14 14 14 14 14 13 13 13 13 13 13 13
10 10 11 13 14 14 13 13 15 16 16 17 17 17 17 17 17 17 16 16 16 16 15 15 15 15 15 15 15 14 14 14 14 14 14 14 14 14 14 14 14 14 13 13 13 13 13 13 13
10 11 12 12 13 13 13 13 15 15 16 17 17 17 17 17 17 17 17 16 16 16 16 15 15 15 15 15 15 14 14 14 14 14 14 14 14 14 14 14 14 13 13 13 13 13 13 13 13
11 12 12 13 14 13 13 14 15 15 16 16 17 18 17 17 17 17 17 17 16 16 16 16 15 15 15 15 15 15 15 14 14 14 14 14 14 14 14 14 14 13 13 13 13 13 13 13 12
11 11 12 13 13 13 13 13 15 16 16 16 17 18 18 18 18 17 17 17 17 16 16 16 16 15 15 15 15 15 15 15 15 15 15 14 14 14 14 14 14 14 14 13 13 13 12 12 12
10 11 12 12 12 13 13 13 14 16 16 17 17 18 18 18 17 17 17 17 17 16 16 16 16 16 15 15 15 15 15 14 14 15 15 15 15 14 14 14 14 14 13 13 13 12 12 12 12
10 12 13 12 11 11 13 12 14 15 15 16 17 17 18 18 18 17 17 17 16 16 16 16 16 16 16 15 15 15 15 15 15 15 15 15 15 14 14 14 14 14 13 13 13 12 12 11 11
11 13 13 12 12 12 13 12 14 15 15 16 16 17 17 17 17 17 17 16 16 16 16 16 16 16 16 16 15 15 15 14 14 14 14 14 14 14 14 14 13 13 13 12 12 12 11 11 11
11 12 12 12 12 11 12 12 13 15 16 16 17 17 17 17 17 17 16 16 16 16 16 16 16 16 16 15 15 15 14 14 14 14 14 14 14 14 14 13 13 13 12 12 12 11 11 10 10
11 10 9 9 9 10 13 13 14 16 16 16 16 17 17 17 16 16 16 16 15 15 15 15 15 15 15 15 15 14 14 14 14 14 14 13 13 13 13 13 12 12 11 11 11 10 10 10 9
10 10 10 9 9 10 13 12 14 16 15 16 16 16 16 16 16 15 15 15 15 15 15 15 15 15 14 14 14 14 14 14 14 13 13 13 12 12 12 12 11 11 11 10 10 10 9 9 9
10 10 11 11 12 11 11 13 15 15 15 15 15 15 15 15 15 15 14 14 14 14 14 14 14 14 14 13 14 14 13 13 13 13 12 12 12 11 11 11 10 10 9 9 9 9 8 8 8
11 11 10 9 10 11 12 12 13 13 14 14 14 14 14 14 14 13 13 13 13 13 13 12 12 12 12 12 12 12 13 13 12 12 12 11 11 10 10 9 9 9 8 8 8 7 7 7 7
10 10 11 10 10 10 11 12 14 13 13 13 13 14 14 13 13 12 12 12 11 11 11 11 10 11 11 11 12 12 12 12 11 11 11 10 10 9 9 8 8 8 7 7 7 7 6 6 6
10 11 11 9 9 11 10 11 14 13 13 13 13 13 13 13 12 12 11 11 10 10 10 9 9 9 10 11 11 11 11 11 11 10 10 9 9 8 8 7 7 6 6 6 6 6 5 5 5
Wind_Speed
11 13 8 3 3 5 11 11 12 8 5 2 4 4 6 10 6 10 7 13 19 19 22 21 20 19 18 17 16 14 14 13 13 14 15 15 16 16 16 17 18 19 20 20 19 19 18 17 16
11 9 5 4 5 8 11 13 11 6 3 5 4 3 2 8 8 7 8 16 19 20 21 20 20 19 18 17 16 14 13 13 13 14 15 16 16 16 16 17 18 18 19 18 18 17 16 15 14
10 10 4 4 7 12 12 12 9 6 7 3 1 2 4 6 7 5 10 17 17 17 20 21 20 19 18 17 15 14 13 13 14 14 15 16 16 16 16 16 17 17 17 17 16 15 14 13 13
6 4 5 7 14 16 14 6 6 7 5 2 2 5 6 6 5 5 11 15 17 15 20 21 20 19 18 16 15 14 13 13 14 15 15 16 16 16 16 15 15 15 15 14 14 13 13 12 11
6 4 8 11 16 17 11 2 4 4 7 7 6 6 5 4 4 7 8 13 15 15 19 20 20 19 18 16 14 13 13 13 14 14 15 16 16 15 15 14 13 13 13 12 12 12 11 11 10
5 4 8 14 18 17 9 4 2 5 5 7 7 7 5 2 3 5 5 10 14 15 17 19 19 19 18 16 14 13 12 12 13 14 15 16 15 15 14 13 12 11 11 10 10 9 9 9 8
6 7 12 16 16 16 10 7 5 6 5 2 1 6 6 4 3 2 4 9 12 14 15 16 17 17 17 17 15 13 12 12 13 14 15 15 14 14 13 12 11 10 9 9 8 7 7 6 6
7 5 13 17 16 13 8 6 4 4 2 5 6 4 7 7 4 3 5 8 10 11 12 13 16 16 15 15 15 14 13 13 13 14 15 15 14 13 12 11 10 9 7 7 6 5 4 3 2
7 7 13 17 13 8 8 7 3 2 6 5 7 8 9 12 8 6 6 6 7 8 9 10 12 15 16 15 15 15 14 13 13 12 13 13 13 13 12 12 10 8 6 5 5 3 2 2 3
7 10 16 15 11 6 6 8 7 4 7 6 8 11 11 11 10 9 8 8 8 8 7 8 8 11 14 14 14 14 12 13 12 12 12 11 9 11 13 13 10 8 7 6 5 5 5 7 7
8 12 15 13 9 4 4 6 8 8 7 8 10 13 12 10 10 10 9 9 8 8 7 6 7 9 10 10 12 11 11 12 11 14 14 8 9 10 12 11 10 9 9 9 9 9 10 10 5
12 15 14 9 5 5 4 4 5 7 6 8 9 12 11 10 9 9 9 9 8 8 8 7 7 7 9 10 8 9 8 8 6 9 9 7 6 4 6 8 11 11 11 10 9 9 10 8 6
17 14 13 9 5 6 6 6 3 3 8 8 8 10 10 10 9 7 7 7 8 8 8 7 7 7 7 7 6 7 7 8 7 7 6 6 6 3 3 4 6 6 7 8 6 6 6 4 4
13 13 11 9 8 7 7 6 4 5 8 8 7 7 8 8 9 8 8 7 7 7 8 7 7 7 6 4 4 4 6 8 8 9 8 6 6 5 3 3 4 4 3 4 5 5 4 3 2
11 11 11 9 9 6 6 8 10 9 6 7 7 6 7 7 8 8 9 8 8 8 8 8 8 6 6 6 6 5 6 8 6 8 9 7 6 6 4 2 1 3 4 4 4 5 3 2 2
9 9 11 11 11 7 7 11 11 9 8 7 7 6 7 7 8 8 8 8 8 9 9 9 8 8 7 6 5 5 6 7 6 8 8 8 7 6 4 2 2 4 4 3 2 2 3 3 3
7 11 13 10 11 7 8 7 9 8 10 10 9 8 7 7 8 8 7 8 7 8 9 9 8 8 8 7 5 5 5 5 6 6 6 7 7 6 5 3 3 4 3 2 2 2 3 3 4
11 10 13 10 10 10 10 8 7 7 9 11 11 10 8 8 9 9 8 7 6 6 7 9 9 8 7 6 5 4 3 3 4 4 5 5 5 5 4 3 4 4 2 2 3 4 4 3 4
8 10 11 10 9 11 12 11 9 9 10 10 10 10 10 9 8 9 9 8 6 5 6 8 9 8 7 5 5 5 5 4 3 3 5 4 3 3 3 2 2 2 2 3 4 3 4 4 3
6 9 9 7 9 10 9 12 11 12 12 11 11 11 11 9 7 8 9 8 8 7 6 6 8 8 7 6 5 4 4 3 3 3 4 4 3 2 2 1 1 1 2 3 4 3 3 3 3
8 9 8 7 6 6 6 8 12 11 12 11 10 9 9 10 10 11 10 9 8 8 7 5 6 7 6 6 5 4 3 3 2 3 3 4 3 2 1 0 1 1 1 2 3 3 3 4 3
7 7 7 10 8 5 8 5 11 13 13 13 11 9 9 9 8 10 11 10 9 8 7 6 4 5 5 6 7 7 5 4 4 4 4 4 4 3 3 2 2 2 1 2 3 2 3 3 4
3 4 5 8 7 4 7 5 6 12 13 14 12 11 10 9 9 9 11 11 10 9 7 6 6 5 4 5 6 6 5 4 4 4 5 4 4 4 3 3 3 2 2 2 3 3 3 3 3
2 4 3 1 3 4 7 7 5 7 12 10 10 10 10 9 8 8 9 10 9 9 7 6 7 6 5 5 5 5 6 6 6 5 4 3 3 3 3 3 2 2 2 2 3 3 4 4 4
5 6 4 3 3 5 8 6 5 2 5 4 3 4 4 5 5 6 8 10 10 10 8 6 7 7 6 6 6 5 6 6 6 5 4 3 2 2 3 3 2 2 3 3 3 3 4 4 4
7 5 2 4 6 4 4 5 3 5 8 7 4 2 2 2 3 3 5 8 10 10 9 8 8 7 7 6 6 6 6 5 4 5 4 3 3 3 3 3 2 3 3 3 3 3 3 2 3
4 3 2 3 1 3 5 5 4 6 7 6 4 3 3 2 2 2 3 6 9 10 9 9 9 8 7 7 7 7 6 6 6 5 4 3 3 3 3 2 2 3 3 3 3 2 3 2 2
1 1 1 1 1 2 6 8 6 9 7 6 6 5 4 4 3 2 2 5 7 8 8 8 8 9 8 8 7 6 7 6 6 4 4 4 4 3 2 2 2 2 2 2 2 2 2 2 3
3 2 2 1 2 1 1 2 4 9 8 8 7 6 5 4 3 2 2 4 6 7 7 7 7 8 8 8 8 7 7 6 5 4 4 4 4 3 3 3 3 3 3 2 2 2 2 3 4
3 4 4 1 2 2 1 1 4 9 8 7 6 4 4 4 3 3 4 5 6 7 6 6 7 7 7 7 7 7 7 6 5 5 5 4 4 4 3 2 3 3 3 3 3 3 3 4 4
Wind_Direction
284 267 249 242 231 230 237 237 238 219 203 73 40 1 18 36 49 111 151 129 124 131 139 144 143 141 137 131 125 120 115 111 109 105 98 93 88 84 81 79 80 81 83 83 83 83 82 82 81
280 263 242 234 224 226 228 232 235 182 121 70 33 347 19 79 69 103 136 123 128 131 141 145 143 142 137 133 128 123 117 114 112 109 103 98 93 88 86 83 82 83 83 84 83 82 82 81 80
269 259 229 219 228 227 228 215 212 134 90 85 111 5 32 46 64 101 116 126 126 131 141 139 143 141 138 135 129 124 119 116 115 113 108 103 98 93 91 88 87 87 87 85 83 82 82 81 79
242 225 231 229 227 232 244 241 155 126 117 182 175 100 75 29 5 96 119 130 127 130 130 137 142 140 138 135 130 126 120 117 118 116 113 109 104 100 98 95 94 93 91 89 86 83 81 80 78
240 223 219 226 230 229 235 317 44 151 158 183 203 134 81 10 4 105 134 133 129 127 128 140 140 140 138 135 132 127 122 120 120 120 117 114 110 107 104 102 99 97 95 92 88 84 80 78 74
216 205 211 218 224 228 215 150 91 264 204 182 192 143 97 58 50 123 148 130 125 123 130 138 140 141 138 135 132 127 124 122 123 122 121 118 116 113 111 108 104 101 97 93 89 85 81 76 70
212 204 214 219 220 221 207 155 173 240 217 151 2 121 122 101 61 83 110 111 118 124 132 139 142 142 140 136 130 125 123 119 120 122 122 122 123 122 120 116 111 107 102 98 94 88 82 76 68
217 219 223 225 225 218 186 157 170 252 108 40 15 94 136 137 119 88 84 101 117 127 138 145 150 148 145 137 132 126 121 118 117 122 126 130 133 133 133 125 118 116 113 110 105 98 92 89 81
227 220 220 220 226 219 163 158 167 11 87 74 61 65 115 130 126 118 108 107 122 135 144 150 152 153 152 144 139 132 128 128 129 133 143 149 156 153 147 134 132 131 131 132 133 137 162 196 216
209 216 221 223 226 215 175 166 163 165 136 122 104 102 122 134 141 145 149 148 149 152 149 148 147 149 148 146 150 150 149 154 164 161 174 196 181 144 139 141 148 154 162 169 180 197 223 236 229
207 220 221 227 225 205 174 190 182 177 161 143 134 133 137 145 151 154 161 161 162 156 147 140 136 141 140 145 158 159 159 172 192 170 187 194 125 127 145 157 166 180 190 199 203 215 231 234 213
221 225 223 226 198 158 173 210 214 179 137 112 121 133 143 150 155 159 165 165 162 160 157 149 138 140 143 150 155 154 154 172 178 167 182 164 144 160 175 173 180 189 197 203 194 220 225 218 218
223 225 222 222 173 158 172 210 233 157 120 115 120 134 145 153 156 158 157 153 155 159 160 159 152 149 149 149 153 159 161 168 168 163 187 168 148 176 194 202 172 203 199 180 206 244 249 226 239
219 221 222 209 186 176 190 216 232 183 148 142 146 150 151 149 153 158 162 163 163 164 163 162 163 158 153 150 155 165 167 166 167 164 188 192 169 175 190 228 177 217 212 206 212 243 253 246 251
230 217 221 213 193 177 182 219 219 208 186 173 170 165 160 155 160 165 166 171 173 170 168 168 170 164 163 166 170 174 175 169 172 167 186 191 189 179 188 237 199 220 221 229 237 274 296 301 288
212 207 210 210 198 181 183 217 217 206 208 203 197 187 183 174 174 167 162 169 175 173 171 169 171 171 174 174 177 177 184 174 173 171 182 188 196 184 184 204 239 249 240 227 226 259 277 269 262
192 197 201 200 193 178 196 221 220 213 211 215 215 206 197 187 181 165 163 166 173 174 166 164 167 175 178 176 174 179 181 167 165 168 170 178 190 188 186 206 236 254 252 235 239 245 252 269 274
179 189 196 197 189 186 204 220 218 221 222 221 217 213 209 201 190 165 157 153 159 166 160 163 166 174 171 167 166 167 165 153 159 160 160 160 173 187 194 206 242 256 250 247 248 248 247 249 263
191 197 199 202 189 194 208 223 215 212 224 228 224 213 211 214 191 156 149 151 156 160 163 167 167 173 167 167 172 170 174 172 165 150 145 150 162 176 182 205 241 251 248 252 257 259 261 257 252
219 210 205 184 178 191 203 226 226 207 216 221 224 221 210 213 191 160 153 158 164 166 172 172 171 172 172 170 166 158 150 151 150 142 132 129 128 132 147 192 262 267 264 274 273 273 269 262 236
213 210 193 163 175 200 195 228 233 215 216 220 223 225 217 209 190 173 167 167 165 166 172 176 173 167 163 152 136 117 110 114 141 157 144 123 120 110 106 53 319 316 285 278 282 285 274 270 266
205 206 188 168 163 197 192 218 222 212 213 214 214 220 224 216 195 177 173 167 168 162 151 153 159 155 152 149 152 156 162 172 173 154 139 126 115 92 62 33 9 346 327 302 292 297 292 280 275
196 174 174 176 187 207 192 217 242 205 206 208 204 206 214 214 202 183 174 166 160 151 151 152 154 153 149 150 157 166 165 153 127 122 133 136 125 112 85 39 14 359 346 330 328 322 310 290 273
185 133 122 167 211 228 207 206 256 209 193 195 194 193 200 200 194 181 166 152 144 140 145 155 158 159 153 152 151 158 152 137 133 140 144 133 125 124 111 71 22 5 3 347 335 324 315 302 290
185 144 132 153 194 227 200 204 240 107 119 130 149 168 176 181 180 172 164 156 150 150 157 166 163 161 157 153 147 136 126 124 136 136 129 122 120 113 98 74 30 17 11 353 335 319 308 307 303
196 183 151 168 183 202 167 206 241 114 92 81 74 90 118 141 153 157 157 155 156 157 161 171 171 163 157 147 132 115 107 106 104 96 94 91 91 87 77 65 40 30 16 356 343 319 312 325 322
190 222 314 324 187 147 184 214 205 113 116 121 119 104 95 90 103 136 150 155 154 161 168 174 167 155 148 136 122 116 111 105 102 97 92 89 87 89 72 65 55 47 29 2 349 348 353 355 7
308 194 158 36 144 195 190 188 190 163 155 142 129 113 92 81 77 92 124 150 151 155 162 166 159 152 143 134 128 123 114 106 106 107 106 100 93 84 77 72 63 58 43 18 22 22 6 46 49
184 209 227 227 288 308 169 96 49 126 132 127 117 106 96 84 90 120 129 131 135 140 152 157 151 141 138 133 127 124 118 115 117 117 111 106 101 91 76 69 65 57 43 29 51 57 47 75 68
265 221 215 189 279 298 354 79 67 90 93 97 101 100 96 103 102 123 134 132 138 150 157 154 144 140 140 135 133 129 121 122 125 120 109 101 98 90 80 71 75 71 53 32 51 73 65 76 77
Height
1515 1517 1519 1522 1524 1523 1519 1507 1498 1496 1496 1498 1500 1503 1505 1508 1509 1522 1521 1523 1524 1527 1530 1534 1538 1541 1543 1545 1547 1549 1550 1551 1552 1553 1554 1555 1555 1556 1556 1557 1558 1559 1560 1561 1562 1563 1563 1564 1564
1514 1516 1520 1520 1521 1523 1514 1502 1496 1495 1497 1499 1502 1505 1506 1510 1515 1518 1521 1523 1525 1527 1531 1534 1538 1541 1544 1546 1548 1550 1551 1552 1553 1555 1556 1557 1557 1558 1558 1559 1560 1561 1562 1563 1564 1565 1566 1566 1567
1512 1515 1518 1516 1515 1514 1506 1496 1493 1494 1498 1501 1504 1506 1510 1515 1518 1520 1522 1524 1526 1529 1532 1535 1539 1542 1545 1547 1549 1551 1552 1553 1555 1556 1557 1558 1559 1560 1560 1561 1562 1563 1564 1565 1566 1567 1568 1568 1569
1512 1514 1514 1512 1510 1502 1496 1491 1490 1494 1499 1503 1505 1509 1513 1518 1520 1523 1524 1526 1527 1530 1533 1536 1540 1543 1546 1548 1550 1552 1553 1555 1556 1557 1559 1560 1561 1562 1562 1563 1565 1566 1567 1567 1568 1569 1570 1571 1571
1510 1510 1511 1509 1503 1496 1493 1492 1493 1495 1499 1503 1505 1509 1515 1518 1520 1523 1526 1528 1529 1531 1533 1538 1541 1544 1547 1549 1551 1553 1554 1556 1557 1559 1560 1561 1562 1563 1564 1565 1566 1568 1569 1570 1570 1571 1572 1572 1573
1507 1506 1510 1508 1500 1493 1492 1494 1497 1498 1499 1502 1504 1508 1516 1518 1521 1525 1527 1530 1531 1532 1534 1538 1542 1545 1547 1550 1552 1553 1555 1557 1558 1560 1561 1562 1564 1565 1566 1567 1568 1569 1570 1571 1572 1573 1573 1574 1574
1504 1503 1503 1500 1497 1492 1490 1494 1498 1499 1499 1502 1503 1507 1514 1517 1521 1525 1528 1530 1532 1533 1535 1539 1542 1545 1548 1550 1552 1554 1556 1558 1559 1561 1562 1563 1565 1566 1567 1568 1569 1571 1572 1573 1573 1574 1575 1575 1576
1498 1501 1499 1496 1493 1490 1489 1493 1497 1500 1500 1503 1504 1507 1513 1516 1520 1524 1527 1529 1532 1535 1537 1539 1542 1545 1548 1550 1552 1554 1556 1558 1560 1562 1563 1564 1566 1567 1568 1569 1570 1572 1573 1573 1574 1575 1576 1576 1576
1496 1501 1497 1493 1491 1489 1489 1494 1498 1500 1501 1504 1507 1509 1512 1515 1519 1523 1527 1529 1532 1536 1538 1540 1543 1546 1548 1550 1553 1555 1556 1558 1560 1562 1564 1565 1566 1567 1568 1570 1571 1572 1573 1574 1575 1575 1576 1576 1577
1493 1495 1491 1487 1487 1489 1490 1494 1498 1501 1503 1506 1509 1511 1513 1515 1519 1522 1525 1528 1532 1535 1538 1541 1543 1546 1548 1550 1553 1555 1556 1559 1560 1562 1564 1565 1566 1567 1568 1570 1571 1572 1573 1573 1574 1575 1575 1576 1576
1488 1487 1486 1486 1487 1490 1492 1495 1498 1500 1503 1504 1508 1511 1513 1516 1519 1522 1525 1528 1532 1535 1538 1540 1543 1546 1548 1550 1552 1554 1556 1558 1560 1562 1564 1566 1567 1568 1569 1570 1570 1571 1572 1573 1573 1574 1575 1575 1575
1485 1483 1485 1486 1488 1491 1495 1497 1498 1499 1502 1504 1506 1509 1512 1515 1518 1521 1524 1527 1531 1534 1537 1540 1542 1545 1547 1550 1552 1554 1556 1558 1560 1562 1564 1565 1566 1567 1568 1569 1569 1570 1571 1572 1572 1573 1573 1574 1574
1481 1481 1484 1486 1488 1491 1496 1499 1500 1500 1501 1503 1506 1509 1512 1515 1518 1521 1523 1526 1529 1532 1535 1538 1541 1543 1546 1549 1551 1553 1555 1557 1559 1561 1563 1564 1565 1566 1567 1568 1569 1570 1571 1571 1572 1572 1573 1573 1573
1479 1481 1482 1485 1488 1491 1495 1498 1500 1500 1501 1504 1506 1509 1512 1515 1517 1520 1522 1525 1528 1531 1533 1536 1539 1542 1544 1547 1550 1552 1554 1556 1558 1559 1561 1563 1564 1565 1566 1567 1568 1569 1570 1570 1570 1571 1572 1572 1571
1478 1481 1483 1484 1487 1491 1496 1500 1499 1499 1501 1503 1505 1508 1511 1514 1516 1519 1521 1523 1526 1529 1531 1534 1536 1539 1542 1545 1548 1550 1553 1555 1556 1558 1559 1561 1562 1563 1564 1565 1567 1567 1568 1568 1569 1569 1570 1569 1569
1478 1482 1486 1484 1486 1489 1497 1500 1495 1497 1500 1502 1504 1506 1509 1512 1515 1517 1519 1522 1524 1527 1529 1532 1534 1537 1540 1543 1545 1548 1551 1553 1554 1556 1558 1559 1560 1561 1562 1563 1564 1565 1566 1566 1567 1567 1567 1567 1566
1479 1482 1484 1483 1483 1487 1494 1496 1493 1495 1498 1500 1502 1504 1507 1510 1513 1515 1517 1520 1522 1525 1527 1529 1532 1534 1537 1540 1543 1546 1549 1551 1552 1554 1556 1557 1558 1559 1560 1561 1562 1563 1563 1564 1564 1564 1564 1564 1563
1478 1480 1481 1482 1483 1486 1492 1492 1491 1492 1495 1497 1499 1502 1505 1507 1510 1512 1515 1517 1520 1523 1525 1527 1530 1532 1535 1538 1541 1543 1546 1548 1550 1552 1553 1555 1556 1557 1558 1559 1560 1560 1561 1561 1561 1561 1561 1560 1559
1474 1476 1479 1480 1480 1485 1489 1490 1489 1491 1493 1494 1495 1498 1501 1504 1507 1509 1512 1514 1517 1520 1522 1525 1527 1530 1533 1535 1537 1540 1542 1545 1547 1549 1550 1552 1553 1554 1555 1555 1556 1557 1557 1557 1558 1557 1557 1556 1555
1475 1477 1478 1479 1479 1484 1488 1489 1486 1486 1489 1490 1492 1494 1497 1500 1503 1506 1509 1511 1514 1517 1519 1522 1524 1527 1530 1532 1535 1537 1540 1542 1544 1546 1547 1548 1550 1551 1551 1552 1552 1553 1553 1553 1553 1553 1552 1551 1552
1475 1476 1477 1481 1482 1482 1486 1490 1485 1482 1484 1486 1488 1490 1493 1496 1499 1502 1505 1508 1511 1513 1516 1519 1521 1524 1527 1529 1532 1534 1537 1539 1541 1542 1544 1545 1546 1547 1548 1548 1548 1549 1548 1548 1548 1548 1547 1547 1547
1475 1472 1473 1478 1486 1489 1487 1494 1483 1478 1480 1481 1483 1486 1489 1492 1495 1498 1501 1504 1507 1510 1513 1515 1518 1521 1523 1526 1528 1530 1533 1535 1537 1539 1540 1541 1542 1543 1543 1544 1544 1544 1544 1543 1543 1543 1542 1542 1541
1471 1469 1473 1477 1483 1485 1484 1489 1481 1472 1476 1476 1478 1481 1485 1488 1491 1494 1497 1500 1503 1506 1509 1512 1514 1517 1520 1522 1524 1527 1529 1531 1533 1535 1536 1536 1537 1538 1539 1539 1539 1539 1538 1538 1538 1537 1537 1536 1536
1472 1474 1476 1478 1483 1492 1483 1487 1482 1469 1468 1470 1472 1476 1481 1484 1487 1490 1493 1496 1499 1502 1505 1508 1510 1513 1516 1518 1521 1523 1525 1527 1529 1531 1532 1532 1533 1533 1534 1534 1534 1533 1533 1533 1532 1531 1531 1530 1530
1474 1481 1490 1494 1496 1492 1476 1481 1477 1463 1462 1466 1470 1473 1477 1481 1484 1487 1489 1492 1494 1498 1501 1504 1506 1509 1511 1514 1516 1519 1521 1523 1525 1526 1527 1528 1528 1528 1528 1529 1529 1528 1528 1527 1527 1526 1525 1525 1525
1474 1477 1485 1490 1494 1487 1475 1481 1472 1462 1463 1466 1470 1472 1476 1479 1481 1484 1486 1488 1491 1493 1496 1499 1502 1504 1507 1510 1512 1514 1517 1519 1520 1522 1523 1523 1524 1524 1524 1524 1523 1523 1523 1522 1521 1521 1520 1520 1519
1475 1477 1476 1479 1475 1482 1481 1473 1465 1462 1465 1468 1471 1473 1476 1478 1480 1482 1484 1485 1487 1490 1492 1495 1497 1500 1503 1505 1507 1510 1512 1514 1516 1518 1518 1519 1519 1519 1519 1519 1518 1518 1518 1517 1516 1516 1515 1515 1514
1474 1474 1479 1483 1484 1483 1476 1473 1471 1467 1467 1469 1472 1474 1476 1478 1479 1480 1482 1483 1484 1486 1488 1491 1493 1495 1498 1501 1504 1506 1508 1510 1512 1513 1514 1514 1514 1514 1514 1514 1513 1513 1513 1512 1512 1511 1511 1510 1510
1477 1477 1476 1478 1479 1484 1481 1477 1461 1463 1466 1469 1472 1474 1476 1477 1478 1479 1480 1481 1481 1483 1485 1487 1489 1492 1494 1497 1500 1502 1504 1506 1508 1509 1509 1509 1509 1509 1509 1509 1509 1508 1508 1508 1508 1507 1507 1506 1506
1474 1474 1476 1483 1484 1478 1483 1482 1463 1465 1467 1470 1472 1474 1475 1476 1477 1477 1478 1478 1479 1480 1481 1483 1486 1488 1491 1494 1496 1499 1501 1502 1503 1504 1504 1504 1504 1504 1504 1504 1504 1504 1504 1504 1504 1503 1503 1503 1502